Weather in Pridorozhnoye

Russia / Amur Oblast     50°51′54″N   129°26′18″E
temp.,
°C
wind,
m/s
gust,
m/s
humid.,
%
clouds,
%
prec.,
mm/h
press.,
hPa
HPBL,
m
25 june, sat
sat2500:00+16se239611 0.0 99266
03:00+16ene119114 0.0 99211
06:00+17nne259063 0.0 993169
09:00+22nne236745 0.0 993550
12:00+25nne575356 0.0 9931767
15:00+25nne475458 0.4 9941870
18:00+22nne247362 0.4 995124
21:00+18s2288100 0.9 99733
26 june, sun
sun2600:00+16s22925 0.3 99913
03:00+14sse229519 0.3 100032
06:00+16sse259387 0.0 1002151
09:00+19sse227976 0.2 1003350
12:00+24sw116025 0.1 10031236
15:00+23se11765 3.0 1003855
18:00+22sse23805 1.3 1004510
21:00+17sse22940 1.3 100538
27 june, mon
mon2700:00+16s38974 0.0 1006159
03:00+14sse379811 0.0 1007146
06:00+15sse38954 0.0 1007226
09:00+20s467588 0.0 1007557
12:00+25s4558100 0.0 10061247
15:00+25s4558100 0.0 10041444
18:00+24s2472100 0.0 1003711
21:00+19s3694100 0.6 1003101
28 june, tue
tue2800:00+18sse3695100 0.9 1003107
03:00+17se4998100 2.4 1002258
06:00+18se3109775 0.4 1001377
09:00+22sse477534 0.4 1000850
12:00+22sse458526 2.8 999778
15:00+21se348287 3.9 998395
18:00+20s118675 0.2 99841
21:00+17sse119598 1.1 99812
29 june, wed
wed2900:00+17ssw229753 0.6 99936
03:00+15w119894 0.8 99915
06:00+17nw239726 0.0 1000107
09:00+22nnw237647 0.0 1000579
12:00+23n237199 0.0 1000519
15:00+25nw246698 1.9 999737
18:00+18e6119447 3.4 1001334
21:00+17e349398 7.1 100264